User: anonymous   Login
Location: Laterina
(43.5167°N, 11.7167°E)
Time: 17:50:55
(UTC+00:00)
Language:

COSMO-SKYMED 1 - Orbit

View from above orbital plane
View from above orbital plane
View from above satellite
View from above satellite

Ground track
Ground track

The orbit data is extracted from the following two-line orbital elements,

1 31598U 07023A   20338.45667366 -.00000149  00000-0 -12130-4 0  9994
2 31598  97.8824 159.1696 0001471  92.6909 267.4492 14.82154617729866
Epoch (UTC): 03 December 2020 10:57:36
Eccentricity: 0.0001471
inclination: 97.8824°
perigee height: 621 km
apogee height: 623 km
right ascension of ascending node: 159.1696°
argument of perigee: 92.6909°
revolutions per day: 14.82154617
mean anomaly at epoch: 267.4492°
orbit number at epoch: 72986

The dashed part of the orbit path shows where the satellite is in the earth's shadow,  

DLR